#timestamp,LO_Frequency,Hit,StdDev 
1583262015.2,286047003.8,N
1583262035.1,286047003.1,N
1583262036.0,286047003.1,N
1583262055.8,286047004.0,N
1583262075.7,286047004.7,N
1583262095.5,286047006.0,N
1583262115.3,286047008.0,N
1583262135.2,286047009.7,N
1583262155.9,286047007.5,N
1583262175.7,286047004.8,N
1583262195.6,286047000.3,N
1583262215.4,286046993.7,N
1583262235.3,286046995.3,N
1583262255.1,286047000.3,N
1583262256.0,286047000.3,N
1583262275.8,286047002.1,N
1583262295.7,286047000.0,N
1583262315.5,286046994.1,N
1583262335.3,286046994.7,N
1583262355.2,286047007.2,N
1583262375.0,286047004.9,N
1583262375.9,286047004.9,N
1583262395.8,286047008.2,N
1583262415.6,286047013.7,N
1583262435.4,286047005.3,N
1583262455.3,286047006.0,N
1583262475.1,286047005.9,N
1583262495.8,286047013.5,N
1583262515.7,286047018.4,Y
1583262535.5,286047021.5,P
1583262555.4,286047017.4,N
1583262575.2,286047018.4,N
1583262595.0,286047013.6,N
1583262595.9,286047013.6,N
1583262615.8,286047011.8,N
1583262635.6,286047016.1,N
1583262655.5,286047019.6,Y
1583262675.3,286047002.3,P
1583262695.1,286046995.9,N
1583262715.9,286046999.5,N
1583262735.7,286046999.1,N
1583262755.5,286047002.3,N
1583262775.4,286046996.9,N
1583262795.2,286047002.6,N
1583262815.0,286047008.6,N
1583262816.0,286047008.6,N
1583262835.8,286047002.4,N
1583262855.6,286046997.5,N
1583262875.5,286046997.8,N
1583262895.3,286047002.7,N
1583262915.1,286046997.8,N
1583262935.9,286046991.8,N
1583262955.7,286046991.8,N
1583262975.6,286046990.1,N
1583262995.4,286046985.8,N
1583263015.2,286046986.9,N
1583263035.1,286046987.7,N
1583263036.0,286046987.7,N
1583263055.8,286046987.9,N
1583263075.6,286046992.3,N
1583263095.5,286046990.7,N
1583263115.3,286046999.7,N
1583263135.2,286047002.5,N
1583263155.9,286047002.8,N
1583263175.7,286047001.4,N
1583263195.6,286047005.5,N
1583263215.4,286046998.1,N
1583263235.2,286046997.0,N
1583263255.1,286046998.8,N
1583263256.0,286046998.8,N
1583263275.8,286047000.9,N
1583263295.7,286046998.1,N
1583263315.5,286046991.8,N
1583263335.3,286047000.2,N
1583263355.2,286046991.9,N
1583263375.0,286046993.5,N
1583263375.9,286046993.5,N
1583263395.7,286046997.6,N
1583263415.6,286046995.7,N
1583263435.4,286046996.5,N
1583263455.3,286047001.2,N
1583263475.1,286046995.8,N
1583263495.8,286047001.9,N
1583263515.7,286047003.4,N
1583263535.5,286047002.5,N
1583263555.4,286046996.6,N
1583263575.2,286046995.1,N
1583263595.0,286046998.0,N
1583263595.9,286046998.0,N
1583263615.8,286046998.8,N
1583263635.6,286047001.2,N
1583263655.4,286047006.1,N
1583263675.3,286047009.2,N
1583263695.1,286047009.2,N
1583263715.9,286047005.9,N
1583263735.7,286047008.1,N
1583263755.5,286047006.9,N
1583263775.4,286047006.5,N
1583263795.2,286047013.3,N
1583263815.0,286047009.6,N
1583263815.9,286047009.6,N
1583263835.8,286047012.3,N
1583263855.6,286047013.1,N
1583263875.5,286047015.0,N
1583263895.3,286047016.8,N
1583263915.2,286047010.7,N
1583263935.9,286047003.5,N
1583263955.7,286047006.7,N
1583263975.6,286047009.0,N
1583263995.4,286047010.1,N
1583264015.2,286047007.3,N
1583264035.1,286047003.0,N
1583264036.0,286047003.0,N
1583264055.8,286047004.6,N
1583264075.7,286047014.0,N
1583264095.5,286047015.1,N
1583264115.3,286047014.8,N
1583264135.2,286047019.9,Y
1583264155.0,286047009.3,P
1583264155.9,286047009.3,P
1583264175.8,286047004.7,P
1583264195.6,286047011.9,Y
1583264215.4,286047005.8,P
1583264235.3,286047010.0,P
1583264255.1,286047012.0,P
1583264275.8,286047006.5,N
1583264295.7,286047002.0,N
1583264315.5,286047001.1,N
1583264335.4,286047003.6,N
1583264355.2,286047004.0,N
1583264375.0,286046998.6,N
1583264375.9,286046998.6,N
1583264395.8,286046999.2,N
1583264415.6,286046998.1,N
1583264435.4,286047007.2,N
1583264455.3,286046999.8,N
1583264475.1,286047004.4,N
1583264495.9,286046998.8,N
1583264515.7,286046991.9,N
1583264535.5,286046995.2,N
1583264555.4,286046993.6,N
1583264575.2,286046988.5,N
1583264595.0,286046991.9,N
1583264595.9,286046991.9,N
1583264615.8,286047007.6,N
1583264635.6,286047008.7,N
1583264655.5,286047007.1,N
1583264675.3,286047003.7,N
1583264695.1,286047011.9,N
1583264715.9,286047006.1,N
1583264735.7,286047008.3,N
1583264755.5,286047009.8,N
1583264775.4,286047020.2,Y
1583264795.2,286047012.9,P
1583264815.1,286047012.8,N
1583264816.0,286047012.8,N
1583264835.8,286047016.9,Y
1583264855.6,286047005.6,P
1583264875.5,286047002.1,N
1583264895.3,286046995.1,N
1583264915.1,286047001.5,N
1583264935.9,286047003.5,N
1583264955.7,286047003.5,N
1583264975.6,286047006.4,N
1583264995.4,286047009.8,N
1583265015.2,286047005.7,N
1583265035.1,286047008.9,N
1583265036.0,286047008.9,N
1583265055.8,286047007.3,N
1583265075.7,286047004.9,N
1583265095.5,286047004.2,N
1583265115.3,286047000.7,N
1583265135.2,286046999.7,N
1583265155.9,286046995.4,N
1583265175.7,286047000.0,N
1583265195.6,286047004.1,N
1583265215.4,286047003.7,N
1583265235.2,286046999.7,N
1583265255.1,286047005.6,N
1583265256.0,286047005.6,N
1583265275.8,286047012.9,Y
1583265295.7,286047001.9,P
1583265315.5,286047002.8,N
1583265335.3,286047010.0,P
1583265355.2,286047012.2,Y
1583265375.0,286047003.8,P
1583265375.9,286047003.8,P
1583265395.8,286047000.2,N
1583265415.6,286046999.1,N
1583265435.4,286046999.2,N
1583265455.3,286046994.8,N
1583265475.1,286046995.3,N
1583265495.8,286047007.1,N
1583265515.7,286046998.7,N
1583265535.5,286046994.3,N
1583265555.4,286046998.8,N
1583265575.2,286047001.8,N
1583265595.0,286047003.4,N
1583265595.9,286047003.4,N
